Flag for Russia Weather past 2 weeks in Barnaul, Russia

Now
72 °F

Partly sunny.


Feels Like: 77 °F
Forecast: 62 / 82 °F
Wind: 17 mph from Northwest

Location: Barnaul Airport

Current Time: Aug 2, 2015 at 4:58:23 PM

Latest Report: Aug 2, 2015 at 4:30 PM


Visibility: N/A

Pressure: 29.80 "Hg

Humidity: 50%

Dew point: 52 °F

Location of BarnaulLocation

Historic Weather in Barnaul — Graph

°F

Barnaul temperature yesterday

Maximum temperature yesterday: 82 °F (at 2:00 PM)
Minimum temperature yesterday: 63 °F (at 3:00 AM)
Average temperature yesterday: 73 °F

Past Weeks' High & Low Weather Summary

 TemperatureHumidityPressure
High88 °F (Jul 18, 3:00 PM)94% (Jul 25, 9:30 PM)29.98 "Hg (Jul 25, 9:30 PM)
Low57 °F (Jul 21, 4:00 AM)24% (Jul 18, 4:30 PM)29.47 "Hg (Jul 25, 8:00 PM)
Average71 °F58%29.74 "Hg
* Reported Jul 18 3:00 PM — Aug 2 3:30 PM, Barnaul, Weather by CustomWeather, © 2015

Note: Actual official high and low records may vary slightly from our data, if they occured in-between our weather recording intervals... More about our weather records

Advertising

Barnaul weather history for previous 24 hours

 ConditionsComfort  
Time TempWeatherWind HumidityBarometerVisibility
3:30 PM
Sun, Aug 2
72 °FPartly sunny.20 mph47%29.80 "HgN/A
3:00 PM72 °FPartly sunny.17 mph50%29.77 "HgN/A
2:30 PM72 °FPartly sunny.17 mph50%29.80 "HgN/A
2:00 PM70 °FPartly sunny.17 mph53%29.80 "HgN/A
1:30 PM68 °FPartly sunny.17 mph56%29.80 "HgN/A
1:00 PM72 °FPartly sunny.17 mph44%29.77 "HgN/A
12:30 PM72 °FPartly sunny.22 mph44%29.77 "HgN/A
12:00 PM73 °FPartly sunny.17 mph41%29.77 "HgN/A
11:30 AM73 °FPassing clouds.20 mph38%29.77 "HgN/A
11:00 AM73 °FPassing clouds.20 mph41%29.77 "HgN/A
10:30 AM73 °FPassing clouds.20 mph41%29.77 "HgN/A
10:00 AM73 °FPassing clouds.20 mph41%29.77 "HgN/A
9:30 AM73 °FSunny.17 mph41%29.77 "Hg10 mi
9:00 AM72 °FSunny.20 mph47%29.74 "Hg10 mi
8:30 AM70 °FSunny.15 mph53%29.74 "Hg10 mi
8:00 AM70 °FSunny.20 mph50%29.74 "Hg10 mi
7:30 AM70 °FSunny.15 mph57%29.74 "Hg10 mi
7:00 AM70 °FSunny.13 mph60%29.74 "Hg10 mi
6:30 AM68 °FSunny.15 mph64%29.74 "Hg10 mi
6:00 AM66 °FSunny.13 mph68%29.74 "Hg10 mi
5:30 AM66 °FPassing clouds.10 mph68%29.71 "HgN/A
5:00 AM68 °FSunny.13 mph60%29.71 "Hg10 mi
4:30 AM68 °FClear.10 mph56%29.71 "Hg10 mi
4:00 AM68 °FClear.10 mph56%29.71 "Hg10 mi
3:30 AM70 °FClear.10 mph50%29.71 "Hg10 mi
3:00 AM70 °FClear.13 mph50%29.71 "Hg10 mi
2:30 AM70 °FClear.15 mph50%29.71 "Hg10 mi
2:00 AM70 °FClear.13 mph50%29.71 "Hg10 mi
1:30 AM70 °FClear.13 mph50%29.71 "Hg10 mi
1:00 AM70 °FClear.10 mph50%29.71 "Hg10 mi
12:30 AM72 °FClear.10 mph47%29.74 "Hg10 mi
12:00 AM72 °FClear.10 mph47%29.74 "Hg10 mi
11:30 PM
Sat, Aug 1
72 °FClear.10 mph44%29.74 "Hg10 mi
11:00 PM72 °FClear.10 mph44%29.77 "Hg10 mi
10:30 PM72 °FClear.10 mph47%29.77 "Hg10 mi
10:00 PM72 °FClear.10 mph50%29.77 "Hg10 mi
9:30 PM72 °FClear.8 mph50%29.80 "Hg10 mi
9:00 PM73 °FClear.8 mph47%29.80 "Hg10 mi
8:30 PM73 °FClear.8 mph44%29.80 "Hg10 mi
8:00 PM75 °FSunny.6 mph44%29.80 "Hg10 mi
7:30 PM77 °FSunny.8 mph39%29.80 "Hg10 mi
7:00 PM79 °FSunny.8 mph37%29.83 "Hg10 mi
6:30 PM79 °FSunny.10 mph37%29.83 "Hg10 mi
6:00 PM81 °FSunny.10 mph34%29.83 "Hg10 mi
5:30 PM81 °FPassing clouds.10 mph37%29.83 "HgN/A
5:00 PM82 °FPassing clouds.8 mph32%29.83 "HgN/A
4:30 PM82 °FPassing clouds.10 mph30%29.86 "HgN/A
4:00 PM82 °FPassing clouds.10 mph30%29.86 "HgN/A
Weather by CustomWeather, © 2015

See weather overviewHow to use our weather pages